Regional Weather Roundup
Issued by NWS

Home | Current Version | Previous Version | Text Only | Print | Product List | Glossary On
Versions: 1 2 3 4 5 6 7 8 9 10 11 12 13 14 15 16 17 18 19 20 21 22 23 24 25 26 27 28 29 30 31 32 33 34 35 36 37 38 39 40 41 42 43 44 45 46 47 48 49 50
000
ASHW40 PHFO 270930
RWRHI

WEATHER ROUNDUP FOR HAWAII
NATIONAL WEATHER SERVICE HONOLULU HI
1100 PM HST TUE AUG 26 2014

THIS IS AN AUTOMATED REPORT THAT HAS NOT BEEN QUALITY CONTROLLED.

NOTE..."FAIR" INDICATES FEW OR NO CLOUDS BELOW 12,000 FEET WITH NO
SIGNIFICANT WEATHER AND/OR OBSTRUCTIONS TO VISIBILITY.

* - THESE SITES REPORT LIMITED FIELDS

HIZ001>004-271000-
KAUAI-NIIHAU-

CITY           SKY/WX    TMP DP  RH WIND       PRES   REMARKS
LIHUE APT      CLOUDY    78  67  68 NE16      29.98S
PORT ALLEN*      N/A     75 N/A N/A E9          N/A
POIPU*           N/A     77 N/A N/A N7G16       N/A
PRINCEVILLE*   NOT AVBL
KOKOLE POINT*  NOT AVBL
MOLOAA DAIRY*  NOT AVBL
WAIMEA HTS*    NOT AVBL
PUU OPAE*      NOT AVBL
PUU LUA*       NOT AVBL
MAKAHA RIDGE*  NOT AVBL
$$

HIZ005>011-271000-
OAHU-

CITY           SKY/WX    TMP DP  RH WIND       PRES   REMARKS
HONOLULU       LGT RAIN  77  70  79 VRB6      29.95R
KALAELOA       PTCLDY    75  67  76 VRB5      29.96S
KANEOHE MCB    MOCLDY    73  71  92 E6        29.96S
WHEELER FIELD  FAIR      73  66  78 NW5       29.97S
BELLOWS*         N/A    N/A N/A N/A NE15G21     N/A
KAHUKU*          N/A    N/A N/A N/A NE6G12      N/A
WHEELER*       NOT AVBL
WAIANAE HARBOR NOT AVBL
DILLINGHAM*      N/A     73  68  83 E2          N/A
KAHUKU TRN*      N/A     73  64  73 E6G16       N/A
KAWAILOA*      NOT AVBL
KII*             N/A     79  66  65 E12G22      N/A
MAKUA RANGE*     N/A     77  68  73 E3G12       N/A
OAHU FOREST NW NOT AVBL
SCHOFIELD BRK*   N/A     70  64  83 SW1         N/A
SCHOFIELD S*   NOT AVBL
WAIANAE VLY*   NOT AVBL
KUAOKALA*      NOT AVBL
HONOULIUULI*   NOT AVBL
MOKUOLOE IS*     N/A    N/A N/A N/A MISG        N/A
PALEHUA*       NOT AVBL
WAIAWA PHB*    NOT AVBL
$$

HIZ012>013-271000-
MOLOKAI-

CITY           SKY/WX    TMP DP  RH WIND       PRES   REMARKS
MOLOKAI AIRPT  PTCLDY    76  70  82 NE3       29.95F
KALAUPAPA      NOT AVBL
MAKAPULAPAI*   NOT AVBL
MOLOKAI 1*     NOT AVBL
PUU ALII*        N/A     59  58  96 E2G8        N/A
$$

HIZ016-271000-
KAHOOLAWE-

CITY           SKY/WX    TMP DP  RH WIND       PRES   REMARKS
KAHOOLAWE*     NOT AVBL
HAKIOAWA*      NOT AVBL
HONOKANAIA*      N/A     77  68  72 N6G16     29.95S
KANELOA*         N/A     73  64  73 E8G26     30.04S
KEALIALALO*    NOT AVBL
LUA MAKIKA*    NOT AVBL
$$

HIZ014>015-271000-
LANAI-

CITY           SKY/WX    TMP DP  RH WIND       PRES   REMARKS
LANAI CITY     FAIR      73  65  76 NE23      29.98F
LANAI 1*       NOT AVBL
$$

HIZ017>028-271000-
MAUI-

CITY           SKY/WX    TMP DP  RH WIND       PRES   REMARKS
KAHULUI        MOCLDY    76  68  76 NE14G23   29.95S
KAPALUA-W MAUI NOT AVBL
HANA AIRPORT   CLOUDY    72  70  94 CALM      29.98F
HANA*            N/A     72 N/A N/A S3          N/A
HALEAKALA SUMM   N/A     48  -2  12 NE7G20      N/A
MAALAEA BAY*   NOT AVBL
HALEAKALA*     NOT AVBL
KAUPO GAP*     NOT AVBL
KULA 1*          N/A     51  45  79 E6          N/A
$$

HIZ023>026-271000-
BIG ISLAND OF HAWAII COAST AND LOWER SLOPES-

CITY           SKY/WX    TMP DP  RH WIND       PRES   REMARKS
KAILUA KONA    CLEAR     77  66  68 N8        29.89S
HILO           CLOUDY    74  68  81 SE5       29.95R
HONOKAA*       NOT AVBL
KAWAIHAE MWT*    N/A     79 N/A N/A N5          N/A
KAWAIHAE*        N/A     79 N/A N/A NE3         N/A
SOUTH POINT*     N/A     72 N/A N/A NE13G20     N/A
UPOLU AIRPORT*   N/A    N/A N/A N/A E13         N/A
KAMUELA*       SUNNY     64  61  88 N15       30.04S
HAKALAU*         N/A     53  53  99 N3          N/A
KALOKO-HONOKO*   N/A     75  70  83 VRB3      29.88S
PALI 2*          N/A     66  59  77 N17G29      N/A
KEALAKOMO*       N/A     79  66  65 VRB16G25    N/A
KAUPULEHU*     NOT AVBL
KAPAPALA*        N/A     68  65  90 CALM        N/A
LOWER KAHUKU*  NOT AVBL
PUHE CS*       NOT AVBL
PUHO CS*         N/A     77  65  65 NE3         N/A
PTA KEAMUKU*     N/A     63  57  82 E16G23      N/A
WAIKOLOA*      NOT AVBL
$$

HIZ027>028-271000-
BIG ISLAND OF HAWAII INTERIOR AND SUMMMITS-

CITY           SKY/WX    TMP DP  RH WIND       PRES   REMARKS
BRADSHAW FIELD CLEAR     53  49  86 SE6       30.27R
MK VISITOR CEN NOT AVBL
MAUNA KEA*       N/A     43 -13   9 NW6         N/A
MAUNA LOA*       N/A     46  -8  10 MISG        N/A
MAUNA LOA 1*     N/A    N/A N/A N/A MISG        N/A
PTA KIPUKA*      N/A     54  52  94 E3          N/A
PTA RANGE 17*    N/A     57  54  88 SE5G12      N/A
PTA WEST*        N/A     55  55 100 SE9         N/A
NENE CABIN*    NOT AVBL
AHUMOA*        NOT AVBL
PTA PORTABLE*  NOT AVBL
PUU MALI*      NOT AVBL
$$

HIC003-271000-
NORTHWEST ISLANDS-

CITY           SKY/WX    TMP DP  RH WIND       PRES   REMARKS
MIDWAY ISLAND  CLEAR     81  75  83 E12       30.15R
MIDWAY NOS*    NOT AVBL
FRENCH FRIGATE NOT AVBL
$$

PHZ110>124-180-271000-
BUOY REPORTS

STATION/POSITION TIME  TEMP    WIND        PRES    WAVE   SWELL
                       AIR SEA DIR/SP/G            HT/PER HT/DIR
                 (UTC) (F)     (DEG/KT/KT) (MB)    (FT/S) (FT/D)
BUOY 51001       NOT AVBL
BUOY 51101       NOT AVBL
BUOY 51100       0900   78 79   50/ 14/ 17 1014.6
BUOY 51003       0900   81 82   60/ 14/ 17 1013.2S   6/ 6   3
BUOY 51004       0803   78 80   80/ 12/ 12 1012.3F   5/ 8   5/ 80
BARBERS PT BUOY  NOT AVBL
WAIMEA BAY BUOY  0900      81                N/A     4/ 9
KAILUA BAY BUOY  0900      81                N/A     6/ 9   2/ 90
LANAI BUOY       NOT AVBL
BARBERS PT 2     0900      81                N/A     4/15   3/190
PAUWELA MAUI     0900      80                N/A     6/ 9   2/ 70
HILO             NOT AVBL
KANEOHE BAY BUOY 0900      81                N/A     5/12   2/ 70
HANALEI KAUAI    NOT AVBL
KAHULUI HARBOR   0900   76 82   50/ 12/ 19 1014.1R
HONOLULU HARBOR  0900   79     110/  3/  7 1014.3R
KILO NALU        NOT AVBL
HILO HARBOR      0900   75     160/  2/  6 1013.8R
MOKUOLOE         0900      83   70/  8/ 10 1014.7R
NAWILIWILI       0900      82                N/A
WHOTS BUOY       NOT AVBL
BUOY 51028       NOT AVBL
$$

......................KEY........................................
  SKY/WX - SKY CONDITIONS/PRESENT WEATHER
  TMP    - TEMPERATURE IN FAHRENHEIT
  DWPT   - DEWPOINT IN FAHRENHEIT
  RH     - RELATIVE HUMIDITY IN PERCENT
  WIND   - DIRECTION AND SPEED /MPH FOR ISLANDS...KTS FOR BUOYS/
  PRES   - MEAN SEA LEVEL PRESSURE IN INCHES OF HG
  VSB    - VISIBILITY IN MILES
  HX     - HEAT INDEX
  WCI    - WIND CHILL INDEX
  VRB    - VARIABLE WIND DIRECTION
  N/A    - NOT AVAILABLE



USA.gov is the U.S. government's official web portal to all federal, state and local government web resources and services.